カタログに戻る

IGS O-8

運用中軍事SSO
NORAD 58762·PAYLOAD·🇯🇵 Japan

打ち上げ Jan 12, 2024 から Tanegashima Space Center

Loading…

次のパス (今後24時間)

TLE

古いSource: Mike McCants

元期: Aug 13, 2026, 00:41 UTC

1 58762U 24010A   26225.02905224 0.00000000  00000-0  00000-0 0    09
2 58762  97.3453 346.1533 0000980 330.0712  29.9286 15.27638576    05

AllMySatでIGS O-8をリアルタイム追跡

Download on the App Store